Regional Weather Roundup
Issued by NWS Burlington, VT

Current Version | Previous Version | Text Only | Print | Product List | Glossary Off
Versions: 1 2 3 4 5 6 7 8 9 10 11 12 13 14 15 16 17 18 19 20 21 22 23 24 25 26 27 28 29 30 31 32 33 34 35 36 37 38 39 40 41 42 43 44 45 46 47 48 49 50

000
ASUS41 KBTV 030910
RWRBTV
VERMONT REGIONAL WEATHER ROUNDUP
NATIONAL WEATHER SERVICE BURLINGTON VT
500 AM EDT FRI JUL 03 2015

NOTE: "FAIR" INDICATES FEW OR NO CLOUDS BELOW 12,000 FEET WITH NO
SIGNIFICANT WEATHER AND/OR OBSTRUCTIONS TO VISIBILITY.

* THESE REPORTS ARE NOT UNDER NWS QUALITY CONTROL AND/OR DO NOT
  REPORT WEATHER SUCH AS PRECIPITATION AND FOG.

VTZ001>019-031000-
_____VERMONT_____


CITY           SKY/WX    TMP DP  RH WIND       PRES   REMARKS
BURLINGTON     CLEAR     50  46  86 CALM      29.94R
MONTPELIER     FOG       43  42  97 CALM      29.99R VSB 1/2
MORRISVILLE    FOG       45  43  93 CALM      29.97R VSB 3/4
ST. JOHNSBURY*   N/A     47  46  97 MISG      29.94R
LYNDONVILLE*   FAIR      44  43  97 CALM      29.96R FOG
MIDDLEBURY*    FAIR      48  48 100 CALM      29.95S
RUTLAND*       CLEAR     48  43  81 SE9       29.97R
SPRINGFIELD    MOCLDY    47  46  97 CALM      29.96S
HIGHGATE*      FAIR      48  47  95 CALM      29.92S
NEWPORT*       FAIR      43  42  97 SW5       29.94R
BENNINGTON     PTCLDY    46  44  93 CALM      29.96S FOG
SUTTON*          N/A     46 N/A N/A MISG        N/A

_____LAKE CHAMPLAIN_____


CITY           SKY/WX    TMP DP  RH WIND       PRES   REMARKS

$$

NYZ007-026>031-035-052-083-031000-
_____NORTHERN NEW YORK_____


CITY           SKY/WX    TMP DP  RH WIND       PRES   REMARKS
PLATTSBURGH    PTCLDY    57  46  66 VRB3      29.92R
SARANAC LAKE   FOG       36  36 100 CALM      29.97R VSB 1
MASSENA        PTCLDY    51  47  86 SW8       29.95S
OGDENSBURG*    CLEAR     52  50  93 CALM      29.95S
POTSDAM*       CLEAR     52  48  87 SW5       29.96S
WATERTOWN      CLEAR     44  42  93 CALM      29.97R
FT DRUM        CLEAR     49  47  92 S3        29.96R
ALBANY         PTCLDY    53  47  79 CALM      29.96R
GLENS FALLS    CLEAR     51  49  92 CALM      29.95R

$$
NHZ002-005-011-031000-
_____NEW HAMPSHIRE_____


CITY           SKY/WX    TMP DP  RH WIND       PRES   REMARKS
LEBANON        PTCLDY    46  44  93 CALM      29.95R
KEENE          CLOUDY    52  48  87 CALM      29.95R VSB 1/4
MT WASHINGTON  PTCLDY    35  35  99 NW35G41     N/A  WCI  21
PLYMOUTH       FAIR      44  44 100 CALM      29.95R
WHITEFIELD     CLEAR     40  38  93 CALM      29.94R

$$

_____REGIONAL QUEBEC LOCATIONS_____


CITY           SKY/WX    TMP DP  RH WIND       PRES   REMARKS
MONTREAL       MOCLDY    55  50  82 SW7       29.91R
QUEBEC CITY    MOCLDY    52  50  93 SW12      29.83R
SHERBROOKE     CLEAR     43  41  93 E3        29.91R

_____REGIONAL ONTARIO LOCATIONS_____


CITY           SKY/WX    TMP DP  RH WIND       PRES   REMARKS
OTTAWA         MOCLDY    50  48  93 SW5       29.94S

______KEY______
VSB  - VISIBILITY IN MILES
WCI  - WIND CHILL INDEX
HX   - HEAT INDEX
$$
NNNN



USA.gov is the U.S. government's official web portal to all federal, state and local government web resources and services.